Time,TemperatureF,DewpointF,PressureIn,WindDirection,WindDirectionDegrees,WindSpeedMPH,WindSpeedGustMPH,Humidity,HourlyPrecipIn,Conditions,Clouds,dailyrainin,SolarRadiationWatts/m^2,SoftwareType,DateUTC
2013-01-07 00:12:00,11.0,8.0,-100.00,SSE,163,0.0,2.0,86,-99.99,,,0.00,0.000000,,2013-01-07 07:12:00,
2013-01-07 00:22:00,11.0,8.0,-100.00,SSE,163,0.0,2.0,86,-99.99,,,0.00,0.000000,,2013-01-07 07:22:00,
2013-01-07 00:32:00,11.0,8.0,-100.00,SSE,163,0.0,2.0,86,-99.99,,,0.00,0.000000,,2013-01-07 07:32:00,
2013-01-07 00:42:00,11.0,8.0,-100.00,SSE,163,0.0,2.0,86,-99.99,,,0.00,0.000000,,2013-01-07 07:42:00,
2013-01-07 01:12:00,4.0,0.0,-100.00,North,355,0.0,0.0,84,0.00,,,0.00,0.000000,,2013-01-07 08:12:00,
2013-01-07 01:22:00,4.0,0.0,-100.00,North,355,0.0,0.0,84,0.00,,,0.00,0.000000,,2013-01-07 08:22:00,
2013-01-07 01:32:00,4.0,0.0,-100.00,North,355,0.0,0.0,84,0.00,,,0.00,0.000000,,2013-01-07 08:32:00,
2013-01-07 01:42:00,4.0,0.0,-100.00,North,355,0.0,0.0,84,0.00,,,0.00,0.000000,,2013-01-07 08:42:00,
2013-01-07 02:02:00,1.0,-4.0,-100.00,North,2,1.0,2.0,80,0.00,,,0.00,0.000000,,2013-01-07 09:02:00,
2013-01-07 02:12:00,1.0,-4.0,-100.00,North,2,1.0,2.0,80,0.00,,,0.00,0.000000,,2013-01-07 09:12:00,
2013-01-07 02:22:00,1.0,-4.0,-100.00,North,2,1.0,2.0,80,0.00,,,0.00,0.000000,,2013-01-07 09:22:00,
2013-01-07 02:32:00,1.0,-4.0,-100.00,North,2,1.0,2.0,80,0.00,,,0.00,0.000000,,2013-01-07 09:32:00,
2013-01-07 02:42:00,1.0,-4.0,-100.00,North,2,1.0,2.0,80,0.00,,,0.00,0.000000,,2013-01-07 09:42:00,
2013-01-07 03:02:00,-2.0,-7.0,-100.00,North,354,0.0,2.0,79,0.00,,,0.00,0.000000,,2013-01-07 10:02:00,
2013-01-07 03:12:00,-2.0,-7.0,-100.00,North,354,0.0,2.0,79,0.00,,,0.00,0.000000,,2013-01-07 10:12:00,
2013-01-07 03:22:00,-2.0,-7.0,-100.00,North,354,0.0,2.0,79,0.00,,,0.00,0.000000,,2013-01-07 10:22:00,
2013-01-07 03:32:00,-2.0,-7.0,-100.00,North,354,0.0,2.0,79,0.00,,,0.00,0.000000,,2013-01-07 10:32:00,
2013-01-07 03:42:00,-2.0,-7.0,-100.00,North,354,0.0,2.0,79,0.00,,,0.00,0.000000,,2013-01-07 10:42:00,
2013-01-07 04:12:00,-1.0,-5.0,-100.00,NE,34,0.0,2.0,82,0.00,,,0.00,0.000000,,2013-01-07 11:12:00,
2013-01-07 04:22:00,-1.0,-5.0,-100.00,NE,34,0.0,2.0,82,0.00,,,0.00,0.000000,,2013-01-07 11:22:00,
2013-01-07 04:32:00,-1.0,-5.0,-100.00,NE,34,0.0,2.0,82,0.00,,,0.00,0.000000,,2013-01-07 11:32:00,
2013-01-07 04:42:00,-1.0,-5.0,-100.00,NE,34,0.0,2.0,82,0.00,,,0.00,0.000000,,2013-01-07 11:42:00,
2013-01-07 05:12:00,1.0,-4.0,-100.00,North,352,1.0,2.0,80,0.00,,,0.00,0.000000,,2013-01-07 12:12:00,
2013-01-07 05:22:00,1.0,-4.0,-100.00,North,352,1.0,2.0,80,0.00,,,0.00,0.000000,,2013-01-07 12:22:00,
2013-01-07 05:32:00,1.0,-4.0,-100.00,North,352,1.0,2.0,80,0.00,,,0.00,0.000000,,2013-01-07 12:32:00,
2013-01-07 05:42:00,1.0,-4.0,-100.00,North,352,1.0,2.0,80,0.00,,,0.00,0.000000,,2013-01-07 12:42:00,
2013-01-07 06:12:00,4.0,0.0,-100.00,North,352,0.0,2.0,83,0.00,,,0.00,0.000000,,2013-01-07 13:12:00,
2013-01-07 06:22:00,4.0,0.0,-100.00,North,352,0.0,2.0,83,0.00,,,0.00,0.000000,,2013-01-07 13:22:00,
2013-01-07 06:33:00,4.0,0.0,-100.00,North,352,0.0,2.0,83,0.00,,,0.00,0.000000,,2013-01-07 13:33:00,
2013-01-07 06:42:00,4.0,0.0,-100.00,North,352,0.0,2.0,83,0.00,,,0.00,0.000000,,2013-01-07 13:42:00,
2013-01-07 07:12:00,3.0,-1.0,-100.00,NNW,347,0.0,2.0,81,0.00,,,0.00,0.000000,,2013-01-07 14:12:00,
2013-01-07 07:22:00,3.0,-1.0,-100.00,NNW,347,0.0,2.0,81,0.00,,,0.00,0.000000,,2013-01-07 14:22:00,
2013-01-07 07:33:00,3.0,-1.0,-100.00,NNW,347,0.0,2.0,81,0.00,,,0.00,0.000000,,2013-01-07 14:33:00,
2013-01-07 07:42:00,3.0,-1.0,-100.00,NNW,347,0.0,2.0,81,0.00,,,0.00,0.000000,,2013-01-07 14:42:00,
2013-01-07 08:12:00,2.0,-2.0,-100.00,North,358,0.0,2.0,81,0.00,,,0.00,0.000000,,2013-01-07 15:12:00,
2013-01-07 08:22:00,2.0,-2.0,-100.00,North,358,0.0,2.0,81,0.00,,,0.00,0.000000,,2013-01-07 15:22:00,
2013-01-07 08:33:00,2.0,-2.0,-100.00,North,358,0.0,2.0,81,0.00,,,0.00,0.000000,,2013-01-07 15:33:00,
2013-01-07 08:42:00,2.0,-2.0,-100.00,North,358,0.0,2.0,81,0.00,,,0.00,0.000000,,2013-01-07 15:42:00,
2013-01-07 09:12:00,4.0,0.0,-100.00,North,354,0.0,2.0,82,0.00,,,0.00,16.000000,,2013-01-07 16:12:00,
2013-01-07 09:22:00,4.0,0.0,-100.00,North,354,0.0,2.0,82,0.00,,,0.00,16.000000,,2013-01-07 16:22:00,
2013-01-07 09:33:00,4.0,0.0,-100.00,North,354,0.0,2.0,82,0.00,,,0.00,16.000000,,2013-01-07 16:33:00,
2013-01-07 09:42:00,4.0,0.0,-100.00,North,354,0.0,2.0,82,0.00,,,0.00,16.000000,,2013-01-07 16:42:00,
2013-01-07 10:12:00,11.0,7.0,-100.00,North,354,0.0,0.0,84,0.00,,,0.00,56.000000,,2013-01-07 17:12:00,
2013-01-07 10:22:00,11.0,7.0,-100.00,North,354,0.0,0.0,84,0.00,,,0.00,56.000000,,2013-01-07 17:22:00,
2013-01-07 10:32:00,11.0,7.0,-100.00,North,354,0.0,0.0,84,0.00,,,0.00,56.000000,,2013-01-07 17:32:00,
2013-01-07 10:42:00,11.0,7.0,-100.00,North,354,0.0,0.0,84,0.00,,,0.00,56.000000,,2013-01-07 17:42:00,
2013-01-07 11:12:00,17.0,12.0,-100.00,NW,313,1.0,3.0,81,0.00,,,0.00,89.000000,,2013-01-07 18:12:00,
2013-01-07 11:23:00,17.0,12.0,-100.00,NW,313,1.0,3.0,81,0.00,,,0.00,89.000000,,2013-01-07 18:23:00,
2013-01-07 11:32:00,17.0,12.0,-100.00,NW,313,1.0,3.0,81,0.00,,,0.00,89.000000,,2013-01-07 18:32:00,
2013-01-07 11:42:00,17.0,12.0,-100.00,NW,313,1.0,3.0,81,0.00,,,0.00,89.000000,,2013-01-07 18:42:00,
2013-01-07 12:12:00,19.0,11.0,-100.00,South,189,2.0,3.0,71,0.00,,,0.00,74.000000,,2013-01-07 19:12:00,
2013-01-07 12:22:00,19.0,11.0,-100.00,South,189,2.0,3.0,71,0.00,,,0.00,74.000000,,2013-01-07 19:22:00,
2013-01-07 12:33:00,19.0,11.0,-100.00,South,189,2.0,3.0,71,0.00,,,0.00,74.000000,,2013-01-07 19:33:00,
2013-01-07 12:42:00,19.0,11.0,-100.00,South,189,2.0,3.0,71,0.00,,,0.00,74.000000,,2013-01-07 19:42:00,
2013-01-07 13:12:00,20.0,13.0,-100.00,West,261,1.0,3.0,74,0.00,,,0.00,100.000000,,2013-01-07 20:12:00,
2013-01-07 13:22:00,20.0,13.0,-100.00,West,261,1.0,3.0,74,0.00,,,0.00,100.000000,,2013-01-07 20:22:00,
2013-01-07 13:33:00,20.0,13.0,-100.00,West,261,1.0,3.0,74,0.00,,,0.00,100.000000,,2013-01-07 20:33:00,
2013-01-07 13:42:00,20.0,13.0,-100.00,West,261,1.0,3.0,74,0.00,,,0.00,100.000000,,2013-01-07 20:42:00,
2013-01-07 14:12:00,18.0,13.0,-100.00,WNW,302,3.0,5.0,79,0.00,,,0.00,90.000000,,2013-01-07 21:12:00,
2013-01-07 14:22:00,18.0,13.0,-100.00,WNW,302,3.0,5.0,79,0.00,,,0.00,90.000000,,2013-01-07 21:22:00,
2013-01-07 14:32:00,18.0,13.0,-100.00,WNW,302,3.0,5.0,79,0.00,,,0.00,90.000000,,2013-01-07 21:32:00,
2013-01-07 14:42:00,18.0,13.0,-100.00,WNW,302,3.0,5.0,79,0.00,,,0.00,90.000000,,2013-01-07 21:42:00,
2013-01-07 15:12:00,18.0,13.0,-100.00,WNW,283,2.0,5.0,82,0.00,,,0.00,50.000000,,2013-01-07 22:12:00,
2013-01-07 15:22:00,18.0,13.0,-100.00,WNW,283,2.0,5.0,82,0.00,,,0.00,50.000000,,2013-01-07 22:22:00,
2013-01-07 15:33:00,18.0,13.0,-100.00,WNW,283,2.0,5.0,82,0.00,,,0.00,50.000000,,2013-01-07 22:33:00,
2013-01-07 15:42:00,18.0,13.0,-100.00,WNW,283,2.0,5.0,82,0.00,,,0.00,50.000000,,2013-01-07 22:42:00,
2013-01-07 16:12:00,18.0,15.0,-100.00,NW,318,1.0,4.0,86,0.00,,,0.00,14.000000,,2013-01-07 23:12:00,
2013-01-07 16:22:00,18.0,15.0,-100.00,NW,318,1.0,4.0,86,0.00,,,0.00,14.000000,,2013-01-07 23:22:00,
2013-01-07 16:32:00,18.0,15.0,-100.00,NW,318,1.0,4.0,86,0.00,,,0.00,14.000000,,2013-01-07 23:32:00,
2013-01-07 16:42:00,18.0,15.0,-100.00,NW,318,1.0,4.0,86,0.00,,,0.00,14.000000,,2013-01-07 23:42:00,
2013-01-07 17:12:00,17.0,14.0,-100.00,South,187,0.0,2.0,88,0.00,,,0.00,4.000000,,2013-01-08 00:12:00,
2013-01-07 17:22:00,17.0,14.0,-100.00,South,187,0.0,2.0,88,0.00,,,0.00,4.000000,,2013-01-08 00:22:00,
2013-01-07 17:32:00,17.0,14.0,-100.00,South,187,0.0,2.0,88,0.00,,,0.00,4.000000,,2013-01-08 00:32:00,
2013-01-07 17:42:00,17.0,14.0,-100.00,South,187,0.0,2.0,88,0.00,,,0.00,4.000000,,2013-01-08 00:42:00,
2013-01-07 18:12:00,16.0,13.0,-100.00,West,280,2.0,4.0,86,0.00,,,0.00,0.000000,,2013-01-08 01:12:00,
2013-01-07 18:22:00,16.0,13.0,-100.00,West,280,2.0,4.0,86,0.00,,,0.00,0.000000,,2013-01-08 01:22:00,
2013-01-07 18:32:00,16.0,13.0,-100.00,West,280,2.0,4.0,86,0.00,,,0.00,0.000000,,2013-01-08 01:32:00,
2013-01-07 18:42:00,16.0,13.0,-100.00,West,280,2.0,4.0,86,0.00,,,0.00,0.000000,,2013-01-08 01:42:00,
2013-01-07 19:12:00,15.0,12.0,-100.00,SSW,209,0.0,3.0,88,0.00,,,0.00,0.000000,,2013-01-08 02:12:00,
2013-01-07 19:22:00,15.0,12.0,-100.00,SSW,209,0.0,3.0,88,0.00,,,0.00,0.000000,,2013-01-08 02:22:00,
2013-01-07 19:32:00,15.0,12.0,-100.00,SSW,209,0.0,3.0,88,0.00,,,0.00,0.000000,,2013-01-08 02:32:00,
2013-01-07 19:42:00,15.0,12.0,-100.00,SSW,209,0.0,3.0,88,0.00,,,0.00,0.000000,,2013-01-08 02:42:00,
2013-01-07 20:12:00,15.0,12.0,-100.00,SSW,208,1.0,3.0,89,0.00,,,0.00,0.000000,,2013-01-08 03:12:00,
2013-01-07 20:22:00,15.0,12.0,-100.00,SSW,208,1.0,3.0,89,0.00,,,0.00,0.000000,,2013-01-08 03:22:00,
2013-01-07 20:32:00,15.0,12.0,-100.00,SSW,208,1.0,3.0,89,0.00,,,0.00,0.000000,,2013-01-08 03:32:00,
2013-01-07 20:42:00,15.0,12.0,-100.00,SSW,208,1.0,3.0,89,0.00,,,0.00,0.000000,,2013-01-08 03:42:00,
2013-01-07 21:12:00,16.0,14.0,-100.00,NW,323,1.0,2.0,91,0.00,,,0.00,0.000000,,2013-01-08 04:12:00,
2013-01-07 21:22:00,16.0,14.0,-100.00,NW,323,1.0,2.0,91,0.00,,,0.00,0.000000,,2013-01-08 04:22:00,
2013-01-07 21:32:00,16.0,14.0,-100.00,NW,323,1.0,2.0,91,0.00,,,0.00,0.000000,,2013-01-08 04:32:00,
2013-01-07 21:42:00,16.0,14.0,-100.00,NW,323,1.0,2.0,91,0.00,,,0.00,0.000000,,2013-01-08 04:42:00,
2013-01-07 22:12:00,17.0,15.0,-100.00,WNW,291,2.0,4.0,91,0.00,,,-99.99,0.000000,,2013-01-08 05:12:00,
2013-01-07 22:22:00,17.0,15.0,-100.00,WNW,291,2.0,4.0,91,0.00,,,-99.99,0.000000,,2013-01-08 05:22:00,
2013-01-07 22:33:00,17.0,15.0,-100.00,WNW,291,2.0,4.0,91,0.00,,,-99.99,0.000000,,2013-01-08 05:33:00,
2013-01-07 22:42:00,17.0,15.0,-100.00,WNW,291,2.0,4.0,91,0.00,,,-99.99,0.000000,,2013-01-08 05:42:00,
2013-01-07 23:12:00,18.0,16.0,-100.00,WSW,241,0.0,4.0,91,0.00,,,0.00,0.000000,,2013-01-08 06:12:00,
2013-01-07 23:22:00,18.0,16.0,-100.00,WSW,241,0.0,4.0,91,0.00,,,0.00,0.000000,,2013-01-08 06:22:00,
2013-01-07 23:32:00,18.0,16.0,-100.00,WSW,241,0.0,4.0,91,0.00,,,0.00,0.000000,,2013-01-08 06:32:00,
2013-01-07 23:42:00,18.0,16.0,-100.00,WSW,241,0.0,4.0,91,0.00,,,0.00,0.000000,,2013-01-08 06:42:00,